Location: Unspecified
(42.9300°N, 71.1866°W)
Time: 08:18:18
(UTC-04:00)

GENESIS II - Visible Passes

Search period start: 28 March 2015 00:00
Search period end: 07 April 2015 00:00
Orbit: 507 x 547 km, 64.5° (Epoch: 27 March)

Date Brightness Start Highest point End Pass type
(mag) Time Alt. Az. Time Alt. Az. Time Alt. Az.
28 Mar 6.7 03:34:15 19° E 03:34:15 19° E 03:35:50 10° ESE visible
28 Mar 4.9 05:09:44 31° W 05:10:16 32° WSW 05:13:54 10° S visible
28 Mar 6.4 20:37:33 10° WSW 20:40:59 27° NW 20:44:26 10° NNE visible
29 Mar 6.6 20:25:39 10° WSW 20:28:59 25° NW 20:32:20 10° NNE visible
30 Mar 6.8 20:13:47 10° W 20:17:00 23° NW 20:20:13 10° N visible
31 Mar 6.9 20:01:53 10° W 20:05:00 21° NW 20:08:06 10° N visible
01 Apr 7.0 19:50:01 10° W 19:52:59 20° NW 19:55:57 10° N visible
02 Apr 7.1 19:38:08 10° W 19:40:58 18° NW 19:43:47 10° N visible
